Wind_Speed
15 17 19 20 19 19 20 20 21 21 20 20 19 19 18 17 16 15 14 13 12 11 10 10 10 10 10 11 11 11 11 11 11 11 11 12 11 10 9 9 9 9 9 11 13 14 14 12 11 11 12 13 14 15 14 17 18 18 15 14 17 13 11 16 18 20 19 18 18 18 19 19 19 19 19 19 19 17 16 15 15 16 18 17 17
15 19 20 21 20 19 21 20 22 21 21 21 20 20 19 18 17 15 13 12 12 11 11 11 12 12 12 12 12 12 11 11 12 12 13 14 13 11 10 10 9 10 10 12 13 12 13 14 13 12 12 13 14 15 15 16 16 16 15 14 16 14 11 15 19 20 19 18 18 18 18 18 18 20 20 19 18 16 14 15 14 15 17 17 16
17 19 18 20 20 19 20 21 23 23 23 23 21 20 18 17 16 15 14 14 14 13 13 13 12 13 13 13 12 12 12 12 13 13 14 15 14 13 12 11 11 11 12 13 13 12 12 14 14 12 12 13 14 15 15 15 15 15 15 13 14 15 12 14 19 20 20 18 19 19 18 17 18 19 20 19 18 16 15 16 16 17 17 17 17
19 18 16 18 20 18 19 21 22 22 22 21 19 18 17 16 16 16 16 15 14 13 13 13 13 13 14 13 12 13 14 13 13 13 13 14 15 15 13 12 12 12 13 14 13 12 12 14 13 12 12 13 14 14 15 14 15 16 14 13 13 15 14 14 19 20 20 19 20 19 17 16 17 18 18 18 18 17 16 17 17 18 17 17 17
20 19 18 17 18 18 17 18 19 20 21 19 18 17 17 17 17 16 16 15 14 13 13 15 14 12 13 13 13 15 15 14 14 13 14 14 15 14 14 14 13 13 14 14 13 12 12 13 13 13 12 12 13 13 14 15 16 15 14 13 12 15 15 14 18 20 20 19 20 18 16 16 16 17 17 17 17 17 17 17 17 17 17 17 17
20 21 20 18 18 18 17 18 20 21 20 19 18 17 17 17 17 16 15 15 14 15 16 15 14 13 13 14 15 16 15 14 14 14 14 15 14 14 15 15 14 14 15 15 14 11 11 13 14 14 12 11 13 13 14 15 16 15 15 14 13 15 15 15 17 19 19 18 19 17 15 15 14 15 17 17 18 18 17 16 16 17 16 16 17
19 21 20 20 20 20 19 20 21 21 19 18 18 17 18 18 17 16 15 15 15 16 16 15 15 15 15 14 15 16 15 14 14 14 14 15 15 15 15 15 15 15 16 16 14 11 11 13 14 14 13 13 14 13 13 15 16 16 16 15 14 14 14 14 15 17 18 17 18 17 15 14 14 15 16 17 17 17 17 16 16 16 16 16 16
16 18 19 21 21 22 20 20 20 19 18 18 17 18 19 18 16 15 15 15 16 17 15 14 16 17 14 14 15 15 15 14 15 14 14 15 15 15 15 15 14 15 16 16 14 12 11 13 14 13 13 14 14 13 13 14 16 16 16 16 15 14 14 14 15 17 17 17 18 17 15 14 15 16 15 16 16 16 16 15 15 16 16 15 16
16 16 17 19 20 21 20 19 18 17 17 16 17 18 18 17 16 15 15 16 17 16 13 15 16 16 14 14 14 14 14 14 14 14 14 15 16 16 15 15 15 15 16 15 13 12 12 14 14 14 13 13 14 13 13 14 15 16 16 15 15 14 14 15 16 17 17 15 16 16 15 15 14 15 16 15 16 15 14 14 14 15 15 15 15
17 16 16 18 19 19 18 18 16 16 16 16 17 18 17 15 15 15 15 16 16 14 13 15 15 15 14 14 14 14 14 14 14 14 14 15 16 15 15 15 15 15 16 15 13 12 13 13 13 13 14 13 13 13 13 14 15 15 16 15 14 14 14 16 17 17 16 15 17 16 15 14 13 15 15 14 14 13 12 13 13 14 15 14 14
17 16 17 18 19 18 17 16 15 16 16 17 17 17 16 15 15 14 15 17 16 13 14 15 15 14 14 14 14 13 14 14 14 14 14 15 15 15 15 15 15 16 16 15 13 13 14 14 13 13 14 14 14 14 14 15 15 15 15 14 14 14 15 16 16 16 16 15 16 16 16 15 14 16 15 14 14 13 13 14 14 14 14 14 13
17 17 17 19 18 17 16 15 16 16 17 17 16 16 15 15 14 14 15 17 15 12 14 16 15 15 15 15 14 13 13 14 14 15 15 15 16 15 15 16 16 16 17 17 15 15 16 15 13 13 14 15 15 14 15 15 15 14 14 14 13 14 15 15 14 14 15 14 14 15 15 16 16 16 14 14 13 13 14 14 14 14 13 13 13
18 17 17 19 18 16 16 16 16 16 17 16 16 15 15 14 13 14 16 17 14 12 13 16 16 16 15 15 15 14 13 14 14 15 15 16 16 15 15 17 17 17 17 17 17 16 16 15 14 15 15 15 15 15 16 16 15 15 14 14 14 14 15 15 14 14 14 14 14 15 15 15 16 15 14 14 14 14 15 14 14 13 13 13 13
19 18 18 18 18 17 16 16 16 16 16 15 15 14 14 14 13 14 16 16 14 12 13 15 15 15 15 15 16 15 14 14 14 14 15 16 16 15 16 17 17 17 18 18 18 18 16 15 15 16 16 16 16 16 16 15 16 15 14 14 14 14 14 13 13 14 14 15 15 15 15 15 15 14 14 14 15 15 14 13 13 12 12 12 12
19 19 18 18 18 17 16 16 16 16 15 15 15 14 14 13 13 14 15 16 15 13 13 15 14 14 15 16 16 15 15 14 14 14 14 15 16 16 16 17 17 18 19 19 18 17 16 16 16 17 17 16 16 17 16 16 16 16 14 13 12 13 12 11 13 13 14 14 14 14 14 14 14 14 14 14 14 14 13 12 12 12 12 12 12
18 18 18 17 17 16 15 15 15 15 14 14 14 14 13 12 13 13 14 15 14 13 13 14 14 14 15 16 16 16 15 15 15 14 14 15 15 16 16 17 17 18 19 18 17 17 17 16 17 18 17 16 16 16 17 16 16 16 14 12 11 13 13 11 12 12 13 13 13 13 13 14 14 13 13 13 13 12 12 12 11 11 11 11 11
17 17 17 17 16 15 14 14 14 14 13 13 13 13 12 12 12 12 13 14 13 13 13 14 14 14 15 16 17 16 15 15 15 15 15 14 15 16 16 17 18 18 19 18 17 17 17 17 17 18 17 17 16 15 16 16 16 15 13 12 12 14 14 11 12 12 12 12 12 13 13 13 13 12 12 12 11 11 11 11 11 11 11 11 11
15 16 16 16 15 14 13 13 13 13 13 13 13 12 12 12 12 12 13 14 13 13 13 14 14 15 16 16 16 16 16 15 15 15 15 15 16 16 16 17 18 18 19 19 18 17 17 18 18 19 18 17 17 16 17 17 16 15 13 13 13 14 13 11 11 11 11 11 12 12 12 12 12 11 11 10 10 10 10 10 10 10 10 10 10
14 15 15 14 14 13 13 12 12 12 13 13 12 11 11 11 12 13 12 13 14 14 14 13 14 14 15 16 16 16 16 15 15 15 15 15 16 16 16 17 17 18 18 19 18 18 18 19 20 19 19 18 17 17 17 17 16 15 14 13 12 13 11 9 10 11 10 11 12 12 12 11 11 10 9 9 9 9 9 9 9 8 9 9 9
13 14 13 13 13 13 12 11 11 11 12 13 12 11 10 11 11 12 12 12 13 15 15 13 13 14 14 16 16 15 15 14 14 15 15 15 16 16 16 16 17 17 18 19 18 20 20 20 20 20 20 19 17 17 17 16 16 16 14 13 12 11 8 8 9 9 10 11 11 11 11 10 10 9 8 8 9 9 8 8 8 7 7 7 8
13 13 13 13 12 13 11 10 11 11 12 12 11 10 10 11 11 11 12 12 13 15 15 14 14 13 13 15 14 13 12 13 13 15 15 15 16 16 16 15 16 16 17 18 19 20 21 21 21 20 19 19 18 17 17 17 16 15 13 11 10 7 6 7 8 9 10 10 11 11 11 10 9 8 8 8 9 9 9 8 7 7 7 7 7
14 13 13 13 12 13 11 10 11 11 12 11 10 11 10 10 9 10 11 13 13 13 14 13 13 12 11 12 11 10 11 11 11 13 14 15 15 15 15 14 15 15 16 17 18 20 21 21 20 19 17 17 17 16 16 16 15 13 12 10 7 6 6 6 7 8 9 10 10 10 10 9 8 7 7 8 8 8 8 8 7 7 7 6 6
16 14 14 14 12 12 11 10 11 11 11 10 10 10 10 9 8 9 11 13 12 12 12 11 11 11 10 10 10 11 11 12 12 13 14 15 16 15 15 14 15 15 15 17 18 19 19 18 17 16 15 14 12 11 12 12 11 11 10 8 6 6 6 6 7 8 8 9 9 8 8 8 7 6 6 7 7 8 8 7 7 7 6 6 6
16 15 15 14 13 13 11 10 11 11 10 10 9 9 9 8 8 8 9 11 11 11 10 10 10 10 10 10 11 11 12 13 13 13 14 14 15 15 14 14 14 14 15 15 15 16 15 14 14 13 11 11 10 10 10 10 9 9 8 8 7 6 6 6 7 7 8 9 8 6 6 6 6 6 5 5 6 7 7 7 6 6 5 5 5
15 14 14 13 13 13 11 10 11 10 10 9 9 9 9 8 8 8 8 9 10 10 10 10 10 9 9 10 11 11 11 11 11 11 11 12 12 12 11 11 11 12 12 12 10 11 10 9 10 9 8 10 10 9 9 9 9 9 8 8 7 6 6 6 7 7 8 8 7 5 5 5 5 5 4 5 5 5 6 6 6 5 5 5 5
14 13 13 13 13 12 11 11 10 10 9 9 9 9 9 8 8 8 8 8 9 10 10 9 9 8 9 9 10 10 10 10 10 10 10 10 10 10 10 10 9 9 9 9 8 8 8 7 8 8 8 9 9 9 9 8 8 8 8 7 7 7 6 6 6 6 7 6 5 4 4 4 4 4 3 4 4 4 4 5 5 4 4 4 4
13 13 13 12 12 11 11 11 10 10 9 8 8 9 8 8 9 8 8 9 9 9 9 9 9 8 8 8 9 10 10 10 10 9 9 10 10 10 10 9 9 8 8 8 8 7 7 8 8 7 8 8 8 9 8 8 8 8 7 7 7 7 7 7 6 6 6 5 4 3 3 3 3 3 3 3 3 3 3 3 3 4 4 4 4
13 13 12 12 12 11 11 11 10 10 9 8 8 8 8 8 9 8 8 9 9 9 9 9 9 8 7 7 8 9 9 9 9 9 9 9 9 9 9 9 9 8 8 8 8 7 7 7 7 8 7 7 8 8 7 7 7 7 7 7 7 7 7 7 6 6 6 5 4 3 3 3 2 2 2 3 2 2 2 2 3 3 4 4 5
13 13 12 12 12 11 11 11 10 10 9 9 8 8 8 8 8 8 8 8 8 9 9 9 8 8 7 7 7 8 9 9 9 8 8 9 8 8 8 8 8 8 8 7 7 7 7 7 7 7 7 7 7 7 6 6 6 6 6 6 6 7 7 7 6 5 5 5 4 4 4 3 3 2 2 2 2 1 1 2 3 3 4 4 4
14 13 12 12 11 11 12 12 11 10 9 9 8 8 8 8 8 8 8 8 8 9 8 8 8 8 7 7 7 7 8 9 9 8 8 8 7 7 7 7 7 7 7 7 7 7 7 7 7 7 7 7 7 6 5 6 6 6 6 6 6 6 7 6 6 5 5 5 5 4 5 5 4 3 1 1 1 0 1 1 2 3 3 4 4
14 14 13 12 12 12 13 12 11 10 9 8 8 8 8 8 8 8 8 8 8 8 7 8 8 8 8 8 7 7 7 8 8 7 7 7 6 6 6 6 6 6 6 6 6 6 6 6 6 7 7 7 6 6 5 5 6 6 6 6 6 6 6 5 5 5 5 5 5 4 4 5 5 4 2 1 1 0 1 1 1 1 2 3 4
14 14 13 12 12 12 13 12 11 10 9 8 8 8 8 8 8 7 7 8 7 7 7 7 8 8 8 7 7 7 7 8 7 6 6 6 6 6 5 5 5 5 6 6 5 6 5 6 5 5 6 6 6 5 4 5 5 5 6 6 6 6 6 5 5 5 5 5 5 4 3 3 4 4 3 2 2 1 1 1 1 2 2 3 3
14 14 13 12 12 12 13 12 11 11 10 9 8 8 8 8 7 7 7 7 7 6 7 7 7 7 7 7 7 7 7 6 6 5 5 5 5 5 5 5 4 5 5 5 5 5 4 5 4 4 5 5 6 5 4 5 5 4 5 6 6 5 5 5 5 5 5 5 5 4 3 3 2 3 3 4 3 3 3 3 3 3 4 4 5
13 14 14 13 12 12 13 12 11 11 10 9 8 8 8 8 7 7 7 7 6 6 6 7 7 7 6 6 7 6 6 5 5 5 4 4 4 4 4 4 4 4 4 4 4 4 4 4 3 4 4 4 5 5 4 5 5 4 5 5 6 5 5 5 5 5 5 5 5 4 3 3 2 1 2 4 4 4 4 4 4 4 5 6 6
13 14 14 13 13 12 12 12 12 11 10 9 8 8 8 8 8 7 7 7 6 6 6 7 6 6 6 6 6 6 6 5 5 4 4 4 4 4 4 4 4 3 3 3 3 3 3 3 3 3 3 4 4 4 4 4 4 5 5 5 5 4 4 5 4 4 5 5 4 4 3 3 2 2 1 2 3 3 3 3 4 4 5 5 6
14 14 15 14 13 13 12 12 13 12 11 10 8 8 8 8 8 7 7 7 6 6 6 6 6 6 6 6 5 5 5 5 5 4 4 3 4 4 4 4 3 4 3 3 3 3 2 2 2 2 3 3 3 3 4 4 4 4 4 4 4 3 3 3 3 3 4 4 3 4 3 3 2 2 2 1 1 2 3 3 3 4 4 5 5
14 14 15 15 14 13 13 12 13 13 12 11 9 8 7 7 8 7 7 7 6 6 6 5 6 6 6 5 6 5 4 5 5 4 3 3 3 4 4 4 4 4 3 3 2 2 2 2 2 2 2 2 2 4 4 4 4 3 3 3 3 3 2 2 2 2 2 2 2 3 3 2 2 2 2 1 1 1 3 4 4 4 4 4 5
15 15 15 15 14 14 13 12 13 13 12 11 10 9 8 8 7 7 7 7 6 6 6 5 5 5 5 5 5 4 3 3 3 3 2 3 3 3 4 4 4 4 3 3 3 2 2 2 2 2 1 1 2 3 4 4 4 3 3 4 3 2 2 2 1 1 1 1 2 2 2 2 2 2 1 1 1 0 2 4 5 5 5 5 5
15 15 15 15 14 13 13 13 13 13 13 12 11 9 9 8 8 7 7 7 7 6 6 6 5 5 5 5 5 4 4 3 3 2 2 2 2 3 4 4 4 4 3 3 3 3 3 2 2 2 1 1 1 2 3 3 3 3 3 3 3 2 1 1 1 1 1 1 2 1 1 2 2 1 1 1 1 1 1 2 4 4 4 5 5
16 16 16 15 15 14 14 14 14 14 13 13 12 10 10 10 9 9 8 8 8 7 6 6 5 5 5 5 4 4 4 3 3 2 2 2 2 3 3 3 3 3 3 3 3 4 3 3 2 2 1 1 1 1 1 2 2 2 3 3 2 1 1 1 1 1 1 1 2 1 1 2 2 2 1 1 0 1 1 2 2 2 3 5 6
16 17 17 17 16 15 15 15 15 15 14 14 12 11 11 11 10 10 10 9 9 8 8 7 6 6 5 5 4 3 3 3 2 2 2 2 2 2 3 3 3 3 3 3 3 3 3 3 2 1 1 1 1 1 1 1 1 1 2 2 2 1 1 1 1 2 2 2 2 2 1 1 2 2 2 1 1 1 1 1 2 2 2 4 5
17 18 18 17 17 16 16 16 16 15 15 14 13 12 11 11 11 10 10 10 10 9 9 8 7 6 6 6 4 3 3 3 3 3 2 2 3 2 2 2 2 2 3 3 3 3 2 2 1 1 2 2 1 2 2 1 1 1 2 1 2 3 2 1 2 2 3 2 2 2 2 1 2 2 2 1 1 1 1 1 2 3 3 4 4
18 18 18 18 17 17 16 16 16 16 15 14 13 12 11 10 10 10 10 9 9 10 8 7 7 6 7 7 5 4 3 3 3 3 3 3 3 3 2 2 2 2 2 3 3 3 2 2 1 1 2 2 3 3 2 1 1 2 1 1 2 3 3 2 2 2 3 2 1 3 2 1 3 2 1 1 1 1 2 2 2 3 3 4 4
17 18 19 18 18 17 17 16 16 16 15 15 14 12 11 11 9 9 9 8 7 9 8 7 7 7 7 8 7 5 4 3 4 4 4 4 4 3 3 2 2 2 2 3 3 3 3 2 2 1 1 1 3 3 2 2 2 3 2 1 1 2 2 3 3 2 3 3 2 3 3 1 2 2 1 1 2 2 1 1 1 2 3 3 4
18 18 19 18 18 18 18 17 17 16 16 16 15 13 12 12 10 9 9 8 7 8 9 9 9 9 8 8 8 6 5 4 5 5 4 4 4 4 3 3 3 3 3 3 3 3 3 3 2 2 1 0 2 2 2 1 2 3 3 2 1 2 3 3 3 2 1 4 3 3 3 1 2 2 1 1 2 2 1 1 1 1 2 3 4
18 18 19 18 18 18 19 18 17 16 16 16 17 15 14 13 12 11 11 10 9 9 11 10 10 10 9 8 8 7 6 5 6 5 5 5 5 4 4 3 3 3 3 2 2 3 3 3 3 3 2 0 1 1 1 1 2 2 2 2 2 2 3 3 2 1 1 2 1 3 3 1 2 3 1 0 0 0 1 1 0 0 1 2 3
19 18 18 19 18 18 19 20 18 17 16 17 18 17 15 14 14 13 12 11 11 10 10 10 10 10 9 8 7 7 6 6 6 6 6 5 5 5 4 3 3 3 3 2 2 2 3 3 3 3 2 1 1 1 0 1 1 1 1 1 1 2 3 3 2 2 2 2 1 1 4 2 3 3 2 2 2 2 2 2 1 1 1 2 3
19 19 19 19 19 19 20 20 18 17 17 18 19 18 16 15 15 14 12 12 11 10 10 11 9 8 8 8 7 7 6 6 6 6 6 6 5 5 5 4 3 3 3 3 2 2 2 3 3 3 3 2 2 1 1 1 1 1 1 1 1 2 2 2 2 1 1 2 1 1 3 3 3 4 3 2 3 3 3 2 2 2 2 3 4
20 20 19 19 19 19 20 20 19 18 18 18 19 19 17 16 16 15 13 12 11 10 10 11 10 8 9 8 7 6 6 6 6 5 6 6 6 6 5 5 4 4 4 3 3 2 2 3 3 3 3 3 2 2 2 2 2 1 1 1 1 1 1 1 1 1 1 1 1 2 3 2 2 3 3 3 3 2 2 2 1 2 3 3 5
20 20 19 19 20 20 20 21 20 18 18 19 20 19 18 17 16 16 15 13 11 11 10 11 11 10 9 9 7 7 6 6 6 6 6 6 7 6 6 5 5 5 4 3 3 3 3 3 3 3 3 3 2 3 3 3 3 2 1 1 1 1 0 0 0 1 2 1 2 0 2 2 1 3 3 4 2 1 1 1 1 2 3 4 5
20 20 20 20 20 21 21 22 21 19 19 20 20 19 19 18 17 17 16 15 13 12 11 12 12 11 11 10 8 8 7 7 6 6 6 6 7 7 6 6 5 5 5 4 4 4 4 4 4 4 4 3 3 3 3 3 3 3 3 3 2 2 2 1 0 1 1 1 2 2 2 3 2 2 3 3 2 1 1 1 1 3 3 4 5
Wind_Direction
122 130 139 136 135 137 132 131 131 130 129 129 131 129 126 121 119 116 112 108 105 110 121 132 135 133 126 119 112 107 105 102 99 95 94 93 92 95 100 105 109 110 103 96 99 103 103 97 89 84 88 95 99 95 94 95 96 94 92 98 94 80 82 93 95 95 96 98 101 101 101 101 102 102 99 95 92 89 90 92 93 93 90 89 86
125 131 137 136 135 136 132 132 131 129 128 128 126 122 120 119 118 115 112 114 120 129 133 135 132 124 114 106 102 100 99 97 96 95 95 97 99 100 100 102 103 104 99 93 92 98 105 103 96 90 92 97 97 95 94 92 92 94 96 99 98 91 84 93 95 95 97 99 101 103 102 103 104 103 100 97 95 92 92 94 95 93 91 90 87
124 128 135 137 134 136 134 134 133 131 129 126 122 118 119 118 118 118 123 129 132 132 132 128 118 107 98 94 98 99 94 88 86 86 89 94 97 94 91 92 93 92 90 89 87 89 89 88 90 91 94 97 97 96 94 92 92 93 95 96 98 97 89 91 95 97 99 99 101 102 100 99 100 99 98 98 97 96 97 99 98 96 93 90 87
125 127 131 132 130 135 136 132 132 128 123 119 120 121 121 122 124 127 129 129 128 126 122 109 97 94 98 102 108 106 98 90 86 85 86 89 92 92 90 87 86 85 86 85 84 88 89 87 92 92 92 96 97 100 99 96 95 94 94 92 93 95 93 93 96 98 99 97 97 96 97 98 99 99 97 98 100 99 99 99 98 96 94 90 87
129 130 129 129 130 133 130 126 125 121 120 123 128 127 126 128 129 129 126 125 124 119 105 94 94 99 105 106 101 98 94 94 95 91 88 87 88 91 92 87 85 85 87 89 88 91 96 97 98 94 92 95 97 101 102 98 96 97 95 92 89 91 94 96 97 97 96 96 97 97 101 103 102 102 103 103 101 97 97 98 96 94 92 89 85
131 130 131 133 133 130 127 126 126 126 129 131 131 129 130 131 128 125 123 122 119 108 98 97 103 103 98 92 88 89 91 96 98 92 89 87 86 85 86 87 86 86 85 87 88 92 100 102 101 99 97 98 99 99 99 97 96 97 96 93 89 90 95 97 97 94 91 92 96 98 100 104 104 105 109 107 100 96 96 96 95 93 89 86 83
128 129 132 135 135 134 132 131 132 134 134 133 131 130 131 128 124 123 121 117 108 101 100 105 103 96 91 91 91 92 94 95 94 92 88 87 86 83 83 84 85 86 87 90 93 98 105 102 101 103 103 101 101 98 96 96 96 95 96 96 94 95 98 99 97 93 90 89 91 97 99 101 106 108 108 104 98 95 96 97 95 92 88 85 83
127 130 133 135 137 137 135 133 135 137 134 132 130 129 128 124 123 120 115 109 101 98 102 104 98 94 93 96 97 95 95 91 88 89 89 88 88 87 85 86 87 86 87 91 97 103 104 102 102 103 101 98 98 98 95 95 96 97 98 99 100 101 100 97 94 89 86 85 86 93 99 99 104 108 107 102 97 92 90 94 95 92 88 85 82
129 129 131 132 133 133 133 135 136 136 133 130 128 128 126 123 121 116 110 104 99 99 102 98 94 95 97 99 100 99 96 93 92 90 90 90 89 87 87 89 89 86 84 85 91 97 97 99 102 103 101 98 98 99 99 98 98 98 100 100 100 101 99 94 88 84 83 87 91 89 91 96 102 106 103 99 93 88 86 91 94 92 89 85 83
129 129 130 129 131 130 131 134 135 133 130 127 126 125 123 120 118 113 107 102 100 103 102 96 95 97 99 101 101 100 97 96 96 93 91 91 90 88 87 87 86 86 87 88 89 90 90 91 95 100 102 102 102 100 100 100 99 98 98 98 97 97 97 93 86 86 87 91 98 97 98 102 104 103 97 94 91 91 96 99 97 91 87 83 82
129 128 128 131 132 129 131 133 132 131 127 124 122 122 120 117 114 111 106 102 102 103 99 94 95 96 95 97 97 99 98 97 95 93 91 90 90 87 86 85 84 84 87 90 91 91 88 89 93 99 102 103 104 101 99 99 98 96 96 97 97 97 93 90 87 89 91 88 93 99 103 103 101 97 92 91 90 91 96 98 95 89 85 81 81
129 128 129 131 130 128 131 131 129 127 123 121 119 119 116 113 111 110 105 100 101 100 95 93 94 95 92 92 94 94 94 94 94 95 94 91 88 85 86 86 82 79 83 89 90 90 89 92 98 101 103 103 104 103 101 99 97 95 95 96 98 98 92 88 88 90 91 90 91 93 94 93 92 91 89 89 90 91 93 93 91 87 84 81 80
130 128 129 130 128 128 128 126 124 122 120 119 118 117 114 111 109 107 102 99 100 99 95 95 95 95 94 93 92 92 91 92 93 94 95 93 90 87 87 87 82 80 84 90 90 89 89 96 100 102 104 103 104 102 99 98 96 93 92 95 97 96 91 88 88 88 87 87 87 86 86 86 88 89 88 90 91 92 92 91 89 85 83 80 77
131 130 131 129 126 125 124 121 121 121 122 120 118 115 112 110 107 103 101 101 102 98 94 93 95 97 97 95 93 94 93 93 93 92 93 93 93 89 85 83 81 81 85 88 88 89 93 98 100 101 103 102 101 100 100 101 99 95 92 95 95 91 87 86 85 84 84 83 83 83 84 87 90 90 89 89 90 91 90 90 88 85 82 79 76
130 130 130 127 124 124 122 121 123 126 124 120 118 114 111 108 104 102 102 104 104 102 98 96 98 99 97 96 96 96 94 94 93 91 91 91 90 88 85 83 81 82 84 84 86 89 93 97 98 99 99 100 100 100 101 102 99 95 93 95 94 91 87 83 82 82 84 84 84 85 87 91 93 91 90 89 89 90 89 88 86 85 82 79 77
127 128 127 126 126 126 125 126 127 127 124 119 115 112 110 107 106 104 103 103 105 105 103 102 101 100 99 98 99 98 97 96 94 95 94 92 91 90 90 90 86 83 84 86 89 91 94 97 99 99 99 98 97 99 100 99 98 93 91 93 95 91 86 81 82 84 86 88 88 90 90 92 93 92 91 89 89 89 89 88 86 84 80 78 76
126 127 127 128 128 130 129 128 128 126 123 118 114 112 111 109 107 105 104 104 105 105 102 103 101 100 100 99 99 99 99 98 96 98 98 98 96 93 92 91 88 86 87 89 90 89 93 97 99 99 98 97 95 96 98 98 96 92 91 96 97 90 84 81 85 88 89 90 90 91 91 92 93 90 90 90 91 90 89 87 85 82 78 75 73
127 127 127 128 129 130 128 129 129 126 125 121 116 116 115 112 109 107 106 107 108 106 102 102 102 102 101 99 99 97 99 99 100 100 100 100 98 95 92 90 87 87 90 92 92 91 92 95 97 95 94 96 97 98 98 96 94 94 97 97 94 90 87 85 88 92 92 92 91 91 93 95 92 90 91 93 94 93 92 89 84 80 77 74 72
129 128 128 129 129 127 128 131 132 130 126 122 118 116 115 113 111 110 107 108 109 105 101 99 100 101 100 100 99 98 99 100 101 100 99 98 99 97 93 91 88 87 90 93 96 95 92 92 93 95 95 94 94 95 95 94 93 94 94 92 89 85 86 89 92 94 93 93 93 94 98 97 92 91 92 91 89 86 88 88 86 82 79 75 72
133 132 131 131 131 130 132 135 136 132 124 120 118 118 118 114 112 112 111 110 107 105 104 99 97 95 96 98 96 96 95 97 100 100 98 97 97 95 92 91 88 87 90 92 92 92 91 89 89 89 90 90 90 91 91 89 85 84 85 87 86 81 84 91 94 95 95 95 95 100 103 97 91 91 92 89 86 83 83 84 85 86 82 78 74
140 138 137 136 135 135 137 138 137 130 122 119 119 120 118 113 112 114 115 113 108 107 107 104 100 97 96 95 94 94 92 95 99 97 97 96 95 94 92 91 88 87 90 93 92 91 92 92 91 90 91 94 93 87 81 78 77 80 85 85 82 85 92 92 92 94 95 96 98 106 106 96 90 89 86 83 81 82 82 81 81 80 79 80 77
147 145 142 142 140 140 142 141 135 129 126 124 124 125 121 117 120 121 118 113 110 108 108 109 110 108 104 99 100 104 102 103 103 100 100 100 98 96 95 92 87 85 87 91 93 93 93 93 96 99 101 97 92 86 80 79 82 85 87 84 85 94 95 92 95 94 94 96 100 107 106 98 93 89 83 79 77 77 78 76 77 77 75 76 73
152 151 148 146 143 143 146 142 135 131 130 128 127 129 127 127 129 128 120 113 111 111 110 113 116 117 116 111 109 109 108 109 108 106 106 105 102 99 97 92 86 85 86 85 87 89 89 91 95 98 100 97 99 102 100 100 96 88 83 85 92 95 93 95 97 96 97 98 101 105 104 102 99 93 83 79 79 74 71 69 71 72 69 68 66
156 154 151 149 146 145 146 144 137 134 134 133 132 133 135 134 130 124 119 117 117 115 113 115 117 116 114 112 110 109 108 108 107 104 104 105 103 99 95 92 89 86 86 85 82 80 81 82 85 89 97 103 109 111 110 112 105 92 88 91 93 95 96 94 93 95 98 100 102 103 105 104 100 94 85 78 77 71 65 64 65 66 61 58 57
153 153 152 151 151 147 147 147 140 139 141 140 138 138 139 135 131 128 123 122 121 119 117 115 111 109 109 111 111 110 109 108 108 105 106 108 106 102 98 98 96 88 86 92 88 82 84 83 83 91 99 101 102 101 100 100 97 93 91 91 94 99 96 91 91 92 94 97 96 100 106 107 101 94 88 82 75 69 62 61 62 59 52 45 46
152 154 155 153 153 148 149 152 146 144 147 146 141 140 140 134 131 131 128 123 121 119 116 112 108 107 109 111 111 110 109 108 107 107 107 107 106 105 102 102 99 94 92 97 96 91 95 94 88 89 88 90 91 90 91 91 93 94 93 93 93 94 93 92 92 90 94 97 93 99 105 103 106 101 92 86 75 68 57 51 50 46 41 33 31
154 154 156 155 154 150 150 155 153 149 149 148 143 142 141 135 131 129 127 122 121 117 112 111 109 110 110 109 109 109 109 107 105 104 103 102 101 101 101 99 96 94 93 94 94 92 91 87 82 79 78 82 82 83 85 88 91 93 95 95 92 91 92 94 93 94 96 100 94 96 111 110 109 110 103 96 81 70 56 38 33 27 27 21 18
156 155 157 158 157 153 152 157 158 153 151 150 145 144 140 135 132 128 124 121 120 116 113 114 112 111 110 107 105 107 107 106 106 103 101 99 96 98 98 98 97 94 94 95 94 92 88 84 80 79 78 80 81 85 88 92 96 97 97 96 96 93 92 94 95 98 98 102 91 67 102 135 134 140 134 118 97 65 41 20 14 9 6 7 7
157 157 158 160 159 156 157 160 160 157 155 153 147 144 139 135 132 128 125 123 121 117 117 118 116 115 110 105 101 103 106 105 104 102 100 98 93 92 91 91 94 95 96 95 92 90 87 83 80 80 79 80 82 85 90 96 99 97 97 98 100 97 94 96 96 99 97 102 100 55 64 108 131 152 169 151 123 72 28 5 356 355 351 349 350
159 159 160 161 160 159 163 162 160 161 160 156 149 143 139 135 131 130 129 127 123 120 123 122 120 118 112 106 99 99 103 103 104 103 102 100 95 90 86 88 89 90 91 91 88 86 86 82 79 80 77 76 78 78 81 86 91 94 94 96 98 97 97 99 101 106 103 103 107 73 56 71 85 99 130 162 171 276 328 337 337 343 339 332 330
161 162 162 161 162 164 165 162 159 161 163 160 150 143 141 138 133 132 132 130 127 126 127 123 119 117 113 109 103 99 100 103 104 105 106 101 97 92 87 88 86 85 86 86 85 81 82 78 73 74 73 75 77 73 77 85 91 93 92 93 95 97 97 101 105 106 105 102 108 101 70 69 73 76 89 102 146 246 291 301 310 313 306 308 312
165 166 163 161 164 167 166 163 161 161 163 162 154 147 145 143 137 136 135 132 132 132 129 123 119 117 115 114 110 104 99 102 102 100 102 97 93 93 89 85 84 85 83 82 82 80 82 78 69 65 68 76 81 76 77 85 88 92 95 95 94 96 97 99 100 98 100 98 103 110 101 83 73 69 75 73 68 53 29 349 332 313 299 297 301
167 166 162 162 165 167 166 165 163 163 165 164 156 152 151 149 144 141 139 137 138 135 129 124 122 121 121 118 114 107 100 102 99 95 95 92 89 89 89 85 81 82 84 82 82 84 87 86 78 72 73 77 83 78 72 79 84 91 97 97 94 94 97 97 96 97 99 100 102 106 109 111 77 53 52 49 43 30 17 3 347 336 326 316 307
166 167 164 165 166 167 168 166 167 167 167 165 159 156 154 152 149 146 144 143 143 139 134 130 127 128 127 122 116 109 105 105 101 95 91 93 93 88 88 87 84 84 88 87 89 96 91 89 89 84 83 82 81 73 65 74 83 90 92 93 94 92 93 92 92 94 96 97 100 101 102 107 102 73 35 25 28 25 14 1 351 342 336 332 323
167 168 166 166 167 168 170 167 169 170 167 167 163 159 158 156 152 150 150 148 148 146 142 140 137 137 133 130 126 118 114 111 105 99 90 93 96 93 92 88 89 91 92 90 94 103 93 84 81 81 90 83 78 73 69 75 86 95 92 90 92 88 89 89 88 95 99 96 95 97 96 95 99 100 71 12 9 17 16 360 349 348 342 338 334
170 170 166 168 169 170 173 169 169 170 169 170 167 162 161 160 155 152 154 153 153 152 149 147 145 143 138 136 137 130 123 115 107 102 95 91 91 93 96 96 98 98 98 94 94 102 94 86 71 70 85 73 69 71 71 82 93 98 98 99 96 89 86 89 94 95 92 91 91 95 92 91 86 61 61 43 357 354 7 11 356 351 349 343 338
173 172 168 170 171 171 176 174 171 170 170 170 169 169 168 165 159 156 158 159 160 158 157 153 148 148 142 138 141 138 134 124 112 105 97 89 89 93 99 106 111 109 105 99 98 98 87 87 83 74 81 72 77 77 73 84 91 95 100 99 92 83 85 89 95 92 87 90 95 96 89 87 82 60 52 50 49 333 349 5 7 1 1 356 348
176 175 172 173 173 174 178 178 174 171 170 170 172 174 171 167 163 164 164 164 167 163 162 161 155 154 147 143 145 143 142 140 130 118 99 90 91 95 104 112 116 116 113 107 102 98 92 96 100 95 88 81 78 75 70 74 81 83 80 79 78 71 81 102 111 112 116 111 95 93 92 83 70 74 69 20 9 308 327 343 353 1 3 4 357
181 180 176 175 176 176 178 177 176 173 169 168 174 177 174 170 168 171 171 172 176 169 167 168 164 160 150 149 150 145 147 150 150 143 120 104 100 100 110 115 115 114 113 116 110 105 98 92 101 111 118 128 87 70 67 64 69 67 56 59 71 67 72 108 152 151 149 109 89 78 91 94 75 52 54 38 327 320 320 320 329 335 339 350 359
183 181 178 178 178 178 177 177 178 176 170 168 174 179 177 174 174 177 177 181 183 178 178 176 172 166 154 155 155 149 148 148 153 154 148 136 111 107 114 115 113 111 108 114 115 110 105 94 97 96 112 155 150 112 77 59 46 49 40 37 51 73 126 118 195 178 166 131 106 77 56 88 87 68 58 77 357 341 344 321 309 311 311 324 348
182 181 180 180 181 181 180 180 180 178 175 173 176 181 181 177 178 181 182 183 184 185 186 184 179 171 163 165 163 158 152 146 150 153 151 147 126 110 110 110 112 113 110 115 113 108 107 99 97 101 119 153 160 156 97 49 18 29 29 37 51 72 125 151 190 179 167 151 135 108 82 88 94 100 101 59 15 2 334 314 312 315 308 308 327
181 181 183 183 183 184 184 183 182 182 183 180 179 182 184 182 181 183 184 183 184 189 190 187 184 176 176 181 175 174 170 154 151 153 150 144 133 118 109 114 119 124 128 132 127 122 116 107 120 154 143 133 121 110 96 22 337 43 23 28 83 93 95 130 178 170 161 149 145 123 103 88 84 79 77 45 354 347 329 327 322 315 310 304 306
182 183 186 185 184 186 187 186 185 186 187 184 182 183 184 184 183 184 185 184 186 191 190 187 187 181 181 187 188 191 192 179 167 162 156 147 139 132 129 133 137 144 146 144 146 146 143 151 166 157 154 142 122 105 96 32 5 34 22 28 77 95 93 85 103 138 145 130 143 127 102 69 86 68 18 349 314 333 335 330 324 317 313 310 307
183 184 186 186 187 188 186 187 188 188 189 186 183 182 179 180 181 182 186 188 186 188 189 189 191 189 185 187 193 199 204 201 188 174 164 155 153 151 144 149 162 168 162 156 165 170 167 177 166 143 196 148 125 126 108 67 34 15 2 29 43 75 77 73 93 122 138 131 142 114 88 33 81 61 337 317 323 325 314 309 313 320 329 328 322
185 185 186 187 189 189 187 186 187 188 189 187 183 179 176 177 180 181 186 192 191 191 194 195 195 194 193 192 195 200 208 209 197 186 175 165 166 167 160 163 173 178 176 170 169 171 169 173 168 158 190 17 101 124 122 82 51 27 7 14 19 55 45 36 76 83 122 130 133 101 79 353 64 61 329 314 329 310 296 328 311 305 331 340 334
188 188 187 188 188 187 186 186 187 188 189 188 184 181 179 180 183 186 188 192 196 198 199 200 197 196 198 194 192 195 202 204 199 192 184 178 175 173 174 177 175 180 185 182 169 168 168 167 173 175 176 195 359 62 119 100 60 46 29 42 14 26 29 6 43 76 81 89 106 117 102 34 79 93 66 21 13 349 29 28 15 7 360 334 326
190 189 189 189 187 185 185 186 187 188 188 187 186 185 186 187 189 193 195 194 197 199 201 203 200 198 200 193 189 190 194 198 196 192 189 186 184 179 181 181 177 180 181 182 182 175 162 160 168 172 174 180 281 312 186 103 72 80 86 69 15 10 28 13 32 95 117 77 5 124 95 80 99 94 67 51 70 72 56 39 47 57 33 358 341
190 190 191 190 187 184 185 186 187 187 187 187 187 188 190 191 193 197 199 199 201 197 196 202 201 198 197 192 192 188 186 193 194 192 191 192 193 188 186 184 180 181 181 183 186 178 156 156 164 165 178 198 211 267 303 330 323 124 98 21 22 22 28 39 49 43 80 104 140 108 73 79 88 70 49 30 44 68 76 53 36 50 48 26 10
193 191 191 190 186 184 185 185 187 187 187 187 188 190 192 193 195 198 202 202 204 200 195 200 200 197 196 195 196 190 182 188 194 195 193 197 202 197 192 188 184 184 186 186 176 177 170 161 172 172 179 200 208 239 264 286 286 186 142 318 14 22 13 62 97 91 50 73 121 112 97 106 85 63 27 7 28 48 71 72 66 61 50 34 23
195 192 192 190 185 185 185 185 187 188 187 187 188 191 192 194 198 200 203 203 202 201 198 199 199 199 201 200 200 196 189 190 196 199 197 203 206 201 198 193 190 190 186 185 177 180 184 174 182 183 180 193 201 226 242 255 269 262 236 241 243 228 155 82 266 67 64 32 316 15 96 67 68 80 26 359 11 21 43 76 110 72 43 26 22
197 193 192 191 187 187 186 185 187 187 188 189 189 191 193 196 200 201 203 203 201 199 197 197 197 201 204 204 204 201 198 199 200 201 199 206 208 203 203 198 193 191 184 186 187 185 187 179 182 186 187 197 201 220 239 242 241 243 244 233 227 218 176 168 181 51 37 29 337 327 54 27 360 62 43 4 345 6 98 117 83 55 33 18 16
Height
828 829 831 831 834 834 836 835 835 835 836 837 837 838 838 839 839 839 840 840 840 841 843 844 845 846 847 847 848 848 848 848 847 847 846 846 845 845 845 844 843 844 845 846 844 842 843 846 849 851 850 849 849 849 850 850 850 851 851 851 849 853 855 850 849 849 850 851 851 852 852 853 854 854 854 855 856 857 857 857 857 857 856 857 857
827 829 831 832 834 834 836 836 837 837 838 839 839 840 840 841 841 842 841 842 843 844 845 845 846 847 848 848 849 849 848 848 846 845 844 844 844 845 845 845 845 846 847 848 846 844 844 845 848 851 851 850 850 850 851 852 852 852 852 852 849 852 857 853 850 851 851 852 853 853 853 854 855 855 854 855 857 858 859 859 859 859 858 859 859
827 830 832 832 834 835 837 837 838 839 840 840 841 841 842 843 843 844 844 845 846 846 847 847 848 850 850 850 849 848 848 848 847 846 845 844 845 847 847 848 848 848 848 848 847 846 847 848 850 851 852 851 851 851 852 853 853 854 853 853 851 851 856 855 852 852 852 853 854 855 855 855 856 856 855 856 858 860 860 860 860 860 860 860 860
829 830 831 832 834 835 838 839 839 839 840 841 842 843 843 845 845 846 846 847 847 847 848 849 851 851 850 847 847 846 847 848 848 847 848 848 848 848 849 850 850 850 850 849 849 848 848 850 851 853 854 853 853 852 852 854 854 855 854 853 854 854 855 856 854 854 854 855 856 856 857 857 858 858 859 859 860 862 861 861 861 861 861 861 861
831 831 832 833 834 835 837 838 838 838 840 842 844 845 846 846 847 848 848 849 849 849 850 852 851 849 847 846 847 848 848 848 848 848 849 850 850 850 851 851 852 852 851 851 851 850 850 851 852 853 855 855 854 853 853 855 855 855 854 854 855 855 856 857 856 855 856 857 858 858 859 860 860 860 861 863 863 863 863 863 863 862 863 862 862
832 833 835 835 836 837 838 839 840 842 844 845 846 847 848 848 849 849 850 850 850 851 852 852 849 848 848 848 850 850 850 849 849 850 851 852 852 852 852 853 852 853 853 853 852 851 852 852 851 852 854 855 855 854 854 855 855 856 855 854 855 856 857 858 857 857 858 859 860 861 861 862 863 863 863 864 864 864 864 864 864 864 864 864 864
832 835 838 838 839 840 841 842 844 846 846 847 848 849 849 850 850 851 851 851 851 852 852 851 849 849 850 850 851 851 851 851 851 851 852 853 853 853 854 854 853 853 854 853 852 852 853 853 853 853 854 855 855 855 856 856 857 857 857 856 856 857 859 859 858 858 858 860 861 862 863 863 864 864 865 865 865 866 865 865 865 865 865 865 865
833 836 838 840 841 842 844 845 846 847 848 849 849 850 850 851 851 852 852 852 853 853 852 852 852 852 852 852 852 853 853 852 853 853 854 854 854 854 854 854 854 854 854 852 851 852 853 853 854 855 855 856 855 856 857 857 858 858 859 859 859 859 860 860 859 859 859 861 862 863 864 864 865 865 866 867 867 867 867 867 866 867 867 867 867
834 836 838 840 841 843 845 846 847 848 849 849 850 851 851 852 852 853 853 854 854 853 853 854 854 854 853 854 854 854 854 854 854 855 855 855 855 854 854 855 856 855 855 855 854 854 854 855 855 856 856 856 857 858 858 859 859 860 860 861 861 861 861 861 861 861 861 863 863 864 864 865 866 866 867 868 868 868 868 868 868 868 868 868 868
835 837 839 840 842 844 845 847 848 849 849 850 851 851 852 852 853 853 854 855 854 853 854 855 856 855 855 855 855 855 855 855 855 855 856 856 856 855 856 856 857 857 857 858 857 857 855 855 856 856 857 857 858 859 859 859 860 860 861 862 862 862 862 862 863 863 864 864 865 866 867 868 868 868 869 869 869 869 870 870 869 869 869 869 869
836 838 839 841 842 844 846 847 848 849 850 850 851 851 852 853 853 854 854 855 854 853 854 856 856 856 856 855 855 855 856 856 857 857 857 857 857 857 858 858 859 858 857 858 858 858 856 856 857 857 858 858 860 860 860 860 861 861 861 862 863 863 863 864 864 865 866 866 867 868 869 869 870 870 870 871 871 871 871 870 871 871 871 871 871
836 838 840 841 843 845 847 848 849 850 850 851 851 852 852 853 854 854 855 856 854 853 854 856 856 856 857 856 855 856 856 857 858 858 858 858 858 858 859 860 859 858 858 859 859 858 857 858 859 859 859 860 861 861 862 861 862 863 862 863 864 865 865 865 866 867 868 868 868 869 870 870 871 871 871 872 872 872 872 872 872 872 872 872 872
837 839 840 842 843 846 847 848 849 850 850 851 851 852 853 853 854 854 855 856 855 853 854 856 856 857 857 857 856 856 857 858 859 859 859 859 859 860 860 861 860 860 861 862 861 860 859 860 861 861 861 861 862 862 862 862 863 863 863 864 865 866 866 867 868 868 868 869 869 870 871 872 872 872 873 873 873 873 873 873 873 873 873 873 873
837 839 841 842 844 846 847 848 849 850 851 851 852 852 853 854 854 855 856 857 856 855 855 857 857 858 858 857 857 858 858 858 859 860 860 860 860 861 861 861 861 862 862 863 862 862 862 863 863 863 863 863 863 863 863 864 864 864 864 865 866 867 867 868 869 869 869 870 870 871 872 873 873 874 874 874 874 874 874 874 874 875 875 874 874
837 839 841 843 844 846 847 849 849 851 851 851 852 852 853 854 855 856 857 858 858 856 856 857 858 859 858 858 859 859 860 860 860 860 861 861 861 861 862 863 863 863 863 863 863 863 864 864 864 864 864 864 864 864 864 865 865 865 865 866 867 868 869 870 870 870 870 871 872 873 874 874 875 875 875 875 875 876 876 876 876 876 876 875 875
838 839 841 843 845 847 848 849 850 851 851 852 852 853 854 854 856 856 857 859 858 858 858 859 859 859 859 859 860 860 861 862 862 862 862 862 863 863 865 866 865 865 864 864 865 865 865 865 865 865 865 865 865 865 865 866 865 866 866 868 869 869 870 871 871 871 872 873 874 875 875 876 876 876 876 877 877 877 877 877 877 877 877 876 876
838 840 842 844 846 847 849 850 850 851 852 852 853 854 855 855 857 857 858 859 859 859 859 859 859 859 860 860 860 861 862 863 863 863 864 864 865 866 866 867 867 867 866 866 867 866 867 867 866 866 866 866 867 867 866 867 866 867 868 869 870 870 871 872 872 873 874 875 875 876 877 877 877 877 878 878 878 878 878 878 878 878 877 877 877
839 841 842 844 846 848 849 850 850 851 852 853 854 855 856 856 857 858 859 859 860 860 860 860 860 860 861 861 862 863 863 864 864 865 866 866 867 867 867 868 868 868 868 868 869 868 868 867 866 866 866 867 868 868 868 867 868 869 870 871 870 871 872 873 874 875 875 876 876 877 878 878 878 878 879 878 879 879 879 878 879 878 878 878 878
840 841 842 844 846 848 849 850 851 852 853 854 855 856 857 857 858 859 859 860 860 860 860 860 860 861 862 863 863 863 864 864 865 866 867 868 868 868 868 868 869 869 870 870 870 870 868 867 867 867 867 868 869 869 869 869 870 871 871 871 872 873 874 875 876 876 877 877 878 878 878 879 879 879 879 879 879 879 879 879 879 879 879 879 879
840 842 843 845 846 848 849 851 852 853 854 855 856 857 857 858 858 859 860 861 861 862 862 862 861 862 863 863 864 864 865 865 866 866 867 868 868 868 868 869 870 870 870 871 871 870 869 868 867 867 867 868 870 871 871 871 871 871 871 872 874 875 876 877 877 877 878 878 879 879 879 879 880 880 880 880 880 880 880 880 880 880 880 880 880
841 842 844 846 847 849 850 851 852 854 855 855 856 857 858 858 859 860 861 862 862 863 864 864 864 863 864 864 865 865 866 867 867 867 868 868 869 869 869 870 870 871 871 871 871 871 870 870 869 869 870 871 872 872 871 871 870 871 873 875 876 877 878 878 878 878 879 879 879 879 880 880 881 881 881 881 881 881 881 881 881 881 881 880 880
841 843 845 846 848 849 851 852 853 855 856 856 857 858 859 859 860 861 862 863 863 865 865 866 866 866 866 866 867 868 868 869 868 868 869 869 870 870 870 870 870 870 871 871 872 873 872 872 872 873 874 874 874 873 873 872 873 875 876 877 878 879 879 879 879 879 879 880 880 880 880 881 881 881 881 882 882 882 881 881 881 881 881 881 881
841 843 845 847 848 850 851 853 854 855 856 857 858 858 860 860 861 861 862 863 864 865 866 867 867 867 868 868 868 869 869 869 869 869 870 870 871 871 871 871 871 871 870 870 871 872 873 873 874 875 876 876 876 876 876 877 877 878 878 878 879 880 880 880 880 880 880 881 881 881 881 881 882 882 882 882 882 882 882 882 882 882 881 881 881
841 843 845 847 849 850 852 853 854 856 857 857 858 859 860 861 861 862 863 864 865 866 866 867 867 868 868 869 869 869 869 869 869 870 870 871 871 872 872 872 872 872 872 871 872 873 873 874 875 876 876 877 878 878 879 879 879 879 879 879 880 880 880 880 880 881 881 881 881 881 882 882 882 882 883 883 883 883 882 882 882 882 882 882 881
840 843 845 847 849 850 852 853 855 856 857 858 859 860 860 861 862 863 864 864 865 866 866 867 867 868 868 869 869 869 870 870 870 871 871 872 872 873 873 874 874 874 874 874 875 875 875 876 877 877 878 878 879 879 879 879 879 879 880 880 881 881 881 881 881 881 881 881 881 882 882 882 883 883 883 883 883 883 883 883 882 882 882 882 882
841 844 845 847 849 850 852 853 855 856 858 858 859 860 860 861 862 863 864 865 865 866 867 867 868 868 869 869 870 870 870 870 871 871 872 873 873 874 874 875 875 875 875 876 877 877 877 878 878 878 878 878 878 879 879 879 879 879 880 881 881 881 881 881 882 882 882 882 882 882 882 882 883 883 883 883 883 883 883 883 883 882 882 882 882
841 843 845 847 849 850 852 853 855 856 858 859 859 860 861 862 863 863 864 865 866 866 867 868 868 869 869 870 870 870 871 871 872 872 872 873 874 874 875 875 875 876 876 877 877 877 878 878 878 879 878 878 879 879 879 879 879 880 881 881 881 881 881 882 882 882 882 882 882 882 882 883 883 883 883 883 883 883 883 883 883 883 883 883 882
841 843 845 847 849 850 852 854 855 856 858 858 859 860 861 862 863 864 864 865 866 867 867 868 869 869 870 870 870 871 871 872 872 872 873 873 874 874 875 876 876 877 877 878 878 878 879 879 879 879 879 879 879 879 879 880 880 880 881 881 881 881 881 882 882 882 883 883 882 882 882 882 883 883 883 883 883 883 883 883 883 883 883 883 883
841 843 845 847 849 850 852 854 855 856 857 858 859 860 861 862 863 864 865 865 866 867 868 869 869 870 870 871 871 871 872 872 873 873 874 874 874 875 875 876 877 878 878 879 879 879 879 879 879 879 879 879 879 880 880 880 880 880 880 881 881 881 882 882 882 882 883 883 883 882 882 882 882 882 883 883 883 883 883 883 883 883 883 883 883
841 843 845 847 849 850 852 854 855 856 857 858 859 860 861 862 863 864 865 866 867 868 868 869 870 870 871 871 871 872 872 873 873 874 874 875 875 875 876 876 877 878 878 879 879 879 880 880 880 880 880 880 880 880 880 880 880 880 880 880 881 881 882 882 882 882 882 883 883 883 882 882 882 882 882 882 883 883 883 883 883 883 883 883 883
841 843 845 847 849 850 852 853 855 856 857 859 859 860 861 862 863 865 866 866 867 868 869 869 870 871 871 872 872 872 873 873 874 875 875 876 876 876 877 877 878 878 878 879 879 880 880 880 880 881 881 881 881 881 880 880 880 880 880 880 881 881 882 882 882 882 882 883 883 883 882 882 882 882 882 882 882 882 882 883 883 883 883 883 882
841 843 845 847 848 850 852 853 855 856 857 859 859 861 862 862 864 865 866 867 867 868 869 870 871 871 872 872 873 873 874 874 875 875 876 876 877 877 878 878 878 878 879 879 880 880 880 881 881 881 882 881 881 881 880 880 880 880 880 881 881 881 882 882 882 882 882 883 883 883 883 882 882 882 882 882 882 882 882 882 882 882 882 882 882
840 842 844 846 848 850 852 853 854 856 857 859 860 861 862 863 864 865 866 867 868 869 869 870 871 872 872 872 873 874 874 875 875 876 876 877 877 877 878 878 879 879 879 880 880 881 881 881 882 882 882 881 881 881 880 880 880 881 880 881 881 882 882 882 882 882 882 883 883 883 883 883 882 882 882 882 882 882 882 882 882 882 881 881 881
839 842 844 846 848 849 851 853 854 856 857 859 860 861 862 863 864 865 866 867 868 869 870 871 871 872 873 873 874 874 875 876 876 876 877 877 877 878 878 879 879 880 880 880 881 881 882 882 882 882 882 881 881 881 881 880 881 881 881 881 881 882 882 882 882 882 882 883 883 883 883 883 883 882 882 882 882 882 882 881 881 881 881 881 881
839 841 844 846 847 849 851 852 854 856 857 859 860 861 862 863 864 865 866 868 868 869 870 871 872 873 873 874 874 875 875 876 876 877 877 878 878 878 879 879 879 880 880 881 881 881 882 882 882 882 882 881 882 881 881 881 881 881 881 881 882 882 882 882 882 882 882 882 883 883 883 883 883 883 882 882 882 881 881 881 881 881 881 881 880
838 841 843 845 847 849 850 852 854 856 857 859 860 861 862 863 865 866 866 868 868 869 870 871 872 873 874 874 875 875 876 876 876 877 878 878 878 879 879 879 880 880 881 881 881 882 882 882 882 882 882 882 882 882 881 881 881 881 881 881 882 882 882 882 882 882 882 882 882 882 882 882 882 882 882 882 882 881 881 881 881 880 880 880 879
838 840 842 845 847 849 850 852 853 855 857 859 860 861 862 863 864 866 867 868 869 869 870 871 872 873 874 874 875 876 876 876 877 877 878 878 879 879 879 880 880 880 881 881 882 882 882 882 882 882 883 883 882 882 882 881 882 881 881 881 881 882 882 882 882 882 882 882 882 882 882 882 882 882 882 882 882 881 881 880 880 880 879 879 879
838 840 842 844 846 848 850 852 853 855 857 859 860 861 862 863 865 866 867 867 868 869 870 871 872 873 874 874 875 876 876 876 877 877 878 878 879 879 880 880 880 881 881 882 882 882 882 882 882 883 883 883 882 882 882 882 882 881 881 881 881 881 881 881 882 881 882 882 881 882 882 882 882 882 882 882 881 881 881 880 879 879 879 878 878
838 840 842 844 846 848 850 852 853 855 857 859 860 862 862 864 865 866 867 868 869 869 870 871 872 873 873 874 875 876 876 876 877 877 878 878 879 879 880 880 880 881 881 881 882 882 883 883 883 883 883 883 883 882 882 882 882 882 881 881 881 881 881 881 881 881 881 881 881 881 881 881 882 881 882 881 881 880 880 880 879 879 878 878 877
837 839 841 844 845 847 849 851 853 855 857 858 860 861 862 863 864 866 867 868 868 869 870 871 872 873 873 874 875 875 876 876 877 877 878 878 879 879 880 880 881 881 881 881 882 882 883 883 883 883 883 883 883 883 882 882 882 882 881 881 881 881 881 881 881 881 881 881 881 881 880 881 881 881 881 881 880 880 880 879 879 879 878 877 877
836 838 840 843 845 846 849 850 852 854 856 857 859 860 861 863 864 865 866 867 868 869 870 871 872 873 874 874 875 875 876 876 877 877 878 878 879 879 880 880 881 881 881 881 882 882 883 883 883 883 883 883 883 882 882 882 882 882 882 881 881 880 880 881 880 880 880 880 880 881 881 880 880 880 880 880 880 880 879 879 879 878 878 877 877
834 837 839 841 844 846 848 849 851 853 855 856 858 859 860 862 863 864 865 866 868 869 870 870 871 872 873 874 875 875 876 876 877 877 878 878 879 879 880 880 881 881 882 882 882 882 882 883 883 883 883 882 882 882 883 883 882 881 881 880 880 880 880 879 879 879 879 879 879 879 880 879 879 880 880 880 880 879 879 878 878 878 877 877 877
832 835 837 840 842 844 847 848 850 852 854 856 857 858 860 861 862 863 864 865 867 868 869 870 871 872 873 874 875 875 876 876 876 877 877 878 879 879 880 880 881 881 881 882 882 882 883 883 883 883 882 882 882 882 883 883 882 881 881 882 881 880 881 879 878 878 878 878 878 878 879 878 879 879 879 879 879 878 878 878 878 877 877 877 876
830 833 836 838 840 843 845 847 849 851 853 855 856 858 859 861 862 863 864 865 866 868 869 870 871 871 872 873 874 875 876 876 876 877 877 878 879 879 880 881 881 881 882 882 882 882 883 883 883 883 882 881 882 883 883 883 883 882 882 882 880 880 884 880 877 878 877 877 878 877 878 878 877 879 879 878 878 877 877 877 877 877 876 876 876
828 831 833 836 838 841 843 846 848 850 852 854 855 857 859 860 862 863 864 865 866 867 868 869 870 871 872 872 874 874 875 876 876 877 877 878 879 879 880 881 881 881 881 882 882 882 882 882 883 883 882 882 882 882 883 883 883 883 882 882 882 884 884 879 878 879 877 876 877 877 878 877 877 878 878 877 877 877 876 876 876 876 876 875 875
826 829 831 834 836 839 842 844 847 849 851 853 854 856 857 859 861 862 863 864 865 866 867 868 869 870 871 871 873 874 875 876 876 877 877 877 878 879 879 880 881 881 881 881 882 882 882 882 882 883 883 883 883 883 883 883 883 883 882 882 883 884 882 879 880 881 878 876 876 876 877 876 876 877 877 876 876 875 875 875 875 875 875 875 874
824 827 830 832 834 837 840 842 845 847 849 851 853 855 856 858 859 860 862 863 864 865 866 867 868 869 870 871 872 873 874 875 876 876 877 877 878 878 879 880 880 881 881 881 881 881 881 882 882 883 883 883 884 883 883 883 883 883 882 882 882 881 881 881 881 881 881 880 877 875 875 875 875 875 875 875 874 874 875 875 874 874 874 874 874
822 825 827 830 833 835 838 840 843 845 847 850 851 853 855 856 858 859 861 862 862 864 866 867 868 869 870 871 872 873 874 874 876 876 876 877 877 878 878 879 879 880 881 881 881 881 881 882 882 883 883 883 884 884 883 883 882 882 882 882 882 882 882 881 880 880 881 881 878 875 875 875 874 875 875 874 874 874 874 874 874 874 874 874 873
820 823 825 828 831 834 836 839 841 843 845 848 850 851 854 855 857 859 859 861 862 863 865 866 867 868 869 870 871 872 873 874 875 876 876 877 877 878 878 878 879 880 880 881 881 881 882 882 882 882 883 883 883 884 884 884 883 882 882 882 882 882 881 881 880 879 878 880 879 875 874 875 874 875 875 874 874 874 874 874 874 874 874 874 873
817 821 824 826 829 832 834 837 839 841 844 845 848 850 852 854 856 857 858 860 861 862 864 865 866 868 869 870 871 872 873 874 875 875 876 877 877 877 877 878 879 879 880 880 881 881 881 882 882 882 883 883 883 883 883 884 883 882 882 882 882 882 882 881 880 879 878 880 878 874 873 874 873 874 875 874 874 874 873 873 873 873 874 873 873
816 819 822 824 827 829 831 834 836 839 842 843 846 848 850 852 854 856 857 859 860 861 863 864 865 867 868 869 870 871 872 873 874 875 875 876 877 877 877 878 878 879 879 880 880 881 881 881 882 882 882 883 883 883 883 883 883 883 882 882 882 882 882 881 880 880 879 879 878 875 873 874 873 873 874 875 874 873 873 873 873 873 874 873 873